BON113 FALA-FACT

Flight info

Callsign BON113
Flight time 1h 47m
Altitude 34000
Route XAGEN UZ31 XALVA UQ23 DUMDO DCT ERDAS ERDAS1B
Aircraft A320/M-SDE3FGHIRWY/LB1

Departure

Time 2026-05-06 19:20
Airport Lanseria International Airport (FALA)

Arrival

Time 2026-05-06 21:07
Airport Cape Town International Airport (FACT)
Time Latitude Longitude Altitude Speed Heading
2026-05-06 18:36 -25.93585 27.92567 4524 ft 0 kts 317°
2026-05-06 19:10 -25.93593 27.92576 4524 ft 3 kts 312°
2026-05-06 19:10 -25.93606 27.92595 4524 ft 3 kts 296°
2026-05-06 19:10 -25.93613 27.92617 4524 ft 3 kts 270°
2026-05-06 19:11 -25.93610 27.92638 4523 ft 0 kts 241°
2026-05-06 19:11 -25.93607 27.92646 4523 ft 2 kts 232°
2026-05-06 19:11 -25.93593 27.92656 4523 ft 2 kts 161°
2026-05-06 19:11 -25.93580 27.92645 4524 ft 3 kts 99°
2026-05-06 19:12 -25.93580 27.92626 4523 ft 1 kts 78°
2026-05-06 19:12 -25.93588 27.92612 4523 ft 2 kts 20°
2026-05-06 19:12 -25.93603 27.92605 4523 ft 2 kts 358°
2026-05-06 19:12 -25.93620 27.92605 4524 ft 2 kts
2026-05-06 19:13 -25.93636 27.92603 4523 ft 2 kts 27°
2026-05-06 19:13 -25.93637 27.92602 4523 ft 0 kts 27°
2026-05-06 19:15 -25.93635 27.92604 4523 ft 1 kts 28°
2026-05-06 19:15 -25.93612 27.92632 4522 ft 8 kts 54°
2026-05-06 19:15 -25.93576 27.92685 4523 ft 9 kts 49°
2026-05-06 19:15 -25.93532 27.92743 4523 ft 10 kts 64°
2026-05-06 19:16 -25.93522 27.92827 4521 ft 12 kts 73°
2026-05-06 19:16 -25.93466 27.92902 4522 ft 13 kts 45°
2026-05-06 19:16 -25.93400 27.92982 4523 ft 15 kts 48°
2026-05-06 19:16 -25.93331 27.93068 4523 ft 14 kts 47°
2026-05-06 19:17 -25.93259 27.93150 4523 ft 15 kts 46°
2026-05-06 19:17 -25.93183 27.93240 4522 ft 17 kts 47°
2026-05-06 19:17 -25.93101 27.93340 4523 ft 18 kts 47°
2026-05-06 19:17 -25.93014 27.93446 4523 ft 18 kts 47°
2026-05-06 19:18 -25.92924 27.93552 4523 ft 19 kts 47°
2026-05-06 19:18 -25.92860 27.93633 4522 ft 8 kts 64°
2026-05-06 19:18 -25.92873 27.93683 4521 ft 8 kts 129°
2026-05-06 19:18 -25.92903 27.93709 4520 ft 3 kts 146°
2026-05-06 19:19 -25.92938 27.93735 4518 ft 9 kts 146°
2026-05-06 19:19 -25.92997 27.93756 4517 ft 9 kts 211°
2026-05-06 19:19 -25.93036 27.93701 4517 ft 10 kts 227°
2026-05-06 19:19 -25.93197 27.93510 4517 ft 70 kts 227°
2026-05-06 19:20 -25.93676 27.92925 4517 ft 132 kts 228°
2026-05-06 19:20 -25.94413 27.92035 4582 ft 174 kts 229°
2026-05-06 19:20 -25.95231 27.91034 5205 ft 179 kts 229°
2026-05-06 19:20 -25.96081 27.90011 5923 ft 182 kts 229°
2026-05-06 19:21 -25.96940 27.88981 6601 ft 182 kts 229°
2026-05-06 19:21 -25.97818 27.87941 7072 ft 189 kts 231°
2026-05-06 19:21 -25.98743 27.86823 7436 ft 204 kts 231°
2026-05-06 19:21 -25.99746 27.85602 7731 ft 226 kts 231°
2026-05-06 19:22 -26.00856 27.84241 8073 ft 250 kts 231°
2026-05-06 19:22 -26.02074 27.82748 8549 ft 268 kts 231°
2026-05-06 19:22 -26.03331 27.81216 9290 ft 274 kts 231°
2026-05-06 19:22 -26.04624 27.79648 10136 ft 275 kts 231°
2026-05-06 19:23 -26.05963 27.78019 10515 ft 297 kts 232°
2026-05-06 19:23 -26.07408 27.76257 10755 ft 318 kts 231°
2026-05-06 19:23 -26.08924 27.74412 11350 ft 325 kts 231°
2026-05-06 19:23 -26.10462 27.72547 12098 ft 328 kts 232°
2026-05-06 19:24 -26.12010 27.70669 12815 ft 331 kts 232°
2026-05-06 19:24 -26.13570 27.68777 13551 ft 333 kts 232°
2026-05-06 19:24 -26.15141 27.66866 14270 ft 336 kts 232°
2026-05-06 19:24 -26.16720 27.64940 14923 ft 338 kts 232°
2026-05-06 19:25 -26.18314 27.62992 15561 ft 341 kts 233°
2026-05-06 19:25 -26.19922 27.61026 16191 ft 344 kts 233°
2026-05-06 19:25 -26.21518 27.59074 16812 ft 346 kts 233°
2026-05-06 19:25 -26.23146 27.57079 17416 ft 349 kts 233°
2026-05-06 19:26 -26.24789 27.55067 18033 ft 352 kts 233°
2026-05-06 19:26 -26.26441 27.53044 18651 ft 354 kts 233°
2026-05-06 19:26 -26.28108 27.51000 19269 ft 358 kts 233°
2026-05-06 19:26 -26.29789 27.48940 19885 ft 360 kts 234°
2026-05-06 19:27 -26.31486 27.46863 20475 ft 364 kts 234°
2026-05-06 19:27 -26.33197 27.44769 21051 ft 367 kts 235°
2026-05-06 19:27 -26.34923 27.42659 21627 ft 369 kts 235°
2026-05-06 19:27 -26.36663 27.40531 22151 ft 372 kts 236°
2026-05-06 19:28 -26.38415 27.38388 22670 ft 375 kts 236°
2026-05-06 19:28 -26.40177 27.36230 23153 ft 378 kts 236°
2026-05-06 19:28 -26.41953 27.34054 23645 ft 380 kts 236°
2026-05-06 19:28 -26.43736 27.31868 24095 ft 383 kts 237°
2026-05-06 19:29 -26.45513 27.29683 24550 ft 384 kts 237°
2026-05-06 19:29 -26.47315 27.27461 24985 ft 387 kts 237°
2026-05-06 19:29 -26.49176 27.25254 25414 ft 393 kts 234°
2026-05-06 19:29 -26.51144 27.23110 25837 ft 397 kts 233°
2026-05-06 19:30 -26.53183 27.21000 26233 ft 401 kts 232°
2026-05-06 19:30 -26.55256 27.18903 26625 ft 403 kts 231°
2026-05-06 19:30 -26.57338 27.16798 26998 ft 405 kts 232°
2026-05-06 19:30 -26.59423 27.14668 27390 ft 407 kts 232°
2026-05-06 19:31 -26.61479 27.12540 27733 ft 409 kts 232°
2026-05-06 19:31 -26.63588 27.10333 28084 ft 412 kts 232°
2026-05-06 19:31 -26.67754 27.05925 28788 ft 415 kts 233°
2026-05-06 19:32 -26.69855 27.03694 29116 ft 418 kts 233°
2026-05-06 19:32 -26.71967 27.01446 29429 ft 420 kts 233°
2026-05-06 19:32 -26.74089 26.99188 29774 ft 421 kts 233°
2026-05-06 19:32 -26.76199 26.96948 30076 ft 424 kts 233°
2026-05-06 19:33 -26.78353 26.94665 30447 ft 424 kts 233°
2026-05-06 19:33 -26.80495 26.92397 30884 ft 422 kts 233°
2026-05-06 19:33 -26.82626 26.90138 31344 ft 421 kts 233°
2026-05-06 19:33 -26.84744 26.87888 31773 ft 419 kts 233°
2026-05-06 19:34 -26.86834 26.85666 32193 ft 418 kts 233°
2026-05-06 19:34 -26.88943 26.83424 32643 ft 417 kts 233°
2026-05-06 19:34 -26.91039 26.81190 33083 ft 415 kts 233°
2026-05-06 19:34 -26.93131 26.78957 33478 ft 414 kts 233°
2026-05-06 19:35 -26.95216 26.76729 33875 ft 413 kts 233°
2026-05-06 19:35 -26.97296 26.74509 34085 ft 413 kts 233°
2026-05-06 19:35 -27.01467 26.70058 34118 ft 414 kts 233°
2026-05-06 19:36 -27.05643 26.65592 34119 ft 415 kts 233°
2026-05-06 19:36 -27.09821 26.61118 34114 ft 415 kts 233°
2026-05-06 19:37 -27.14007 26.56637 34110 ft 415 kts 233°
2026-05-06 19:37 -27.17490 26.52910 34111 ft 416 kts 233°
2026-05-06 19:38 -27.22356 26.47686 34111 ft 416 kts 233°
2026-05-06 19:38 -27.26547 26.43173 34109 ft 417 kts 233°
2026-05-06 19:39 -27.30739 26.38662 34112 ft 417 kts 233°
2026-05-06 19:39 -27.34934 26.34144 34109 ft 417 kts 233°
2026-05-06 19:40 -27.39109 26.29642 34106 ft 417 kts 233°
2026-05-06 19:40 -27.43312 26.25113 34101 ft 418 kts 233°
2026-05-06 19:41 -27.47513 26.20577 34097 ft 418 kts 233°
2026-05-06 19:41 -27.51687 26.16058 34092 ft 419 kts 232°
2026-05-06 19:42 -27.55890 26.11504 34086 ft 419 kts 232°
2026-05-06 19:42 -27.60105 26.06943 34087 ft 419 kts 232°
2026-05-06 19:43 -27.64315 26.02385 34087 ft 419 kts 232°
2026-05-06 19:43 -27.68497 25.97846 34085 ft 419 kts 232°
2026-05-06 19:44 -27.72705 25.93272 34081 ft 419 kts 232°
2026-05-06 19:44 -27.76906 25.88695 34075 ft 419 kts 232°
2026-05-06 19:45 -27.81097 25.84118 34076 ft 419 kts 232°
2026-05-06 19:45 -27.85276 25.79558 34069 ft 419 kts 232°
2026-05-06 19:46 -27.89470 25.74976 34066 ft 419 kts 232°
2026-05-06 19:46 -27.93661 25.70389 34064 ft 419 kts 232°
2026-05-06 19:47 -27.97850 25.65796 34060 ft 419 kts 232°
2026-05-06 19:47 -28.02017 25.61231 34057 ft 419 kts 232°
2026-05-06 19:48 -28.06209 25.56633 34054 ft 419 kts 232°
2026-05-06 19:48 -28.10389 25.52029 34053 ft 419 kts 232°
2026-05-06 19:49 -28.14556 25.47443 34051 ft 419 kts 231°
2026-05-06 19:49 -28.18744 25.42834 34048 ft 419 kts 231°
2026-05-06 19:50 -28.22932 25.38224 34048 ft 419 kts 231°
2026-05-06 19:50 -28.27111 25.33605 34046 ft 418 kts 231°
2026-05-06 19:51 -28.31260 25.29012 34047 ft 418 kts 231°
2026-05-06 19:51 -28.35423 25.24401 34047 ft 418 kts 231°
2026-05-06 19:52 -28.38894 25.20563 34047 ft 417 kts 231°
2026-05-06 19:52 -28.43727 25.15211 34047 ft 417 kts 230°
2026-05-06 19:53 -28.47206 25.11348 34048 ft 417 kts 230°
2026-05-06 19:53 -28.51330 25.06763 34048 ft 416 kts 230°
2026-05-06 19:54 -28.56144 25.01405 34047 ft 416 kts 230°
2026-05-06 19:54 -28.59614 24.97541 34046 ft 415 kts 230°
2026-05-06 19:55 -28.63714 24.92970 34044 ft 415 kts 230°
2026-05-06 19:55 -28.67840 24.88365 34047 ft 415 kts 229°
2026-05-06 19:56 -28.71963 24.83762 34045 ft 414 kts 230°
2026-05-06 19:56 -28.76051 24.79184 34046 ft 414 kts 229°
2026-05-06 19:57 -28.80161 24.74579 34046 ft 414 kts 229°
2026-05-06 19:57 -28.84272 24.69972 34046 ft 413 kts 229°
2026-05-06 19:58 -28.88360 24.65374 34047 ft 413 kts 229°
2026-05-06 19:58 -28.92428 24.60799 34046 ft 412 kts 229°
2026-05-06 19:59 -28.96515 24.56199 34049 ft 412 kts 229°
2026-05-06 19:59 -29.00596 24.51602 34048 ft 411 kts 229°
2026-05-06 20:00 -29.04695 24.46977 34058 ft 415 kts 229°
2026-05-06 20:00 -29.08802 24.42334 34059 ft 414 kts 228°
2026-05-06 20:01 -29.12887 24.37714 34057 ft 412 kts 228°
2026-05-06 20:01 -29.16933 24.33132 34055 ft 411 kts 228°
2026-05-06 20:02 -29.20992 24.28533 34054 ft 410 kts 228°
2026-05-06 20:02 -29.25050 24.23929 34056 ft 409 kts 228°
2026-05-06 20:03 -29.29085 24.19336 34058 ft 408 kts 227°
2026-05-06 20:03 -29.33089 24.14783 34060 ft 407 kts 227°
2026-05-06 20:04 -29.37104 24.10207 34059 ft 406 kts 227°
2026-05-06 20:04 -29.41114 24.05634 34059 ft 406 kts 227°
2026-05-06 20:05 -29.45120 24.01061 34059 ft 405 kts 227°
2026-05-06 20:05 -29.49096 23.96520 34060 ft 404 kts 227°
2026-05-06 20:06 -29.53076 23.91965 34061 ft 403 kts 227°
2026-05-06 20:06 -29.57061 23.87405 34060 ft 403 kts 226°
2026-05-06 20:07 -29.61025 23.82860 34058 ft 402 kts 226°
2026-05-06 20:07 -29.64983 23.78312 34059 ft 402 kts 227°
2026-05-06 20:08 -29.68939 23.73756 34055 ft 402 kts 227°
2026-05-06 20:08 -29.72865 23.69231 34055 ft 402 kts 227°
2026-05-06 20:09 -29.76820 23.64678 34055 ft 401 kts 226°
2026-05-06 20:09 -29.80777 23.60133 34057 ft 401 kts 226°
2026-05-06 20:10 -29.84707 23.55604 34058 ft 401 kts 227°
2026-05-06 20:10 -29.88655 23.51026 34059 ft 401 kts 227°
2026-05-06 20:11 -29.92606 23.46462 34061 ft 401 kts 227°
2026-05-06 20:11 -29.96517 23.41921 34061 ft 401 kts 227°
2026-05-06 20:12 -30.00458 23.37344 34061 ft 401 kts 227°
2026-05-06 20:12 -30.04392 23.32771 34056 ft 402 kts 226°
2026-05-06 20:13 -30.08336 23.28170 34055 ft 403 kts 226°
2026-05-06 20:13 -30.12260 23.23600 34053 ft 403 kts 226°
2026-05-06 20:14 -30.16226 23.18986 34053 ft 404 kts 226°
2026-05-06 20:14 -30.20190 23.14370 34054 ft 405 kts 226°
2026-05-06 20:15 -30.24156 23.09729 34055 ft 405 kts 226°
2026-05-06 20:15 -30.28091 23.05117 34053 ft 405 kts 226°
2026-05-06 20:16 -30.32066 23.00459 34054 ft 406 kts 226°
2026-05-06 20:16 -30.36024 22.95807 34055 ft 406 kts 226°
2026-05-06 20:17 -30.39996 22.91139 34056 ft 406 kts 226°
2026-05-06 20:17 -30.43951 22.86494 34056 ft 407 kts 226°
2026-05-06 20:18 -30.47923 22.81814 34059 ft 407 kts 226°
2026-05-06 20:18 -30.51897 22.77133 34063 ft 407 kts 226°
2026-05-06 20:19 -30.55870 22.72439 34065 ft 407 kts 226°
2026-05-06 20:19 -30.59819 22.67779 34063 ft 407 kts 226°
2026-05-06 20:20 -30.63791 22.63080 34064 ft 408 kts 226°
2026-05-06 20:20 -30.67761 22.58364 34062 ft 408 kts 226°
2026-05-06 20:21 -30.71734 22.53649 34061 ft 408 kts 226°
2026-05-06 20:21 -30.75701 22.48939 34060 ft 408 kts 226°
2026-05-06 20:22 -30.79653 22.44247 34059 ft 408 kts 226°
2026-05-06 20:22 -30.83630 22.39519 34061 ft 408 kts 226°
2026-05-06 20:23 -30.87600 22.34784 34059 ft 408 kts 226°
2026-05-06 20:23 -30.91563 22.30036 34067 ft 408 kts 226°
2026-05-06 20:24 -30.95502 22.25320 34079 ft 408 kts 225°
2026-05-06 20:24 -30.99464 22.20580 34101 ft 408 kts 225°
2026-05-06 20:25 -31.03428 22.15827 34112 ft 408 kts 225°
2026-05-06 20:25 -31.07391 22.11072 34117 ft 408 kts 225°
2026-05-06 20:26 -31.11349 22.06312 34121 ft 408 kts 225°
2026-05-06 20:26 -31.15285 22.01574 34124 ft 408 kts 225°
2026-05-06 20:27 -31.19235 21.96815 34120 ft 409 kts 225°
2026-05-06 20:27 -31.23205 21.92035 34117 ft 410 kts 224°
2026-05-06 20:28 -31.27179 21.87241 34117 ft 410 kts 224°
2026-05-06 20:28 -31.31124 21.82470 34118 ft 411 kts 224°
2026-05-06 20:29 -31.35094 21.77657 34120 ft 411 kts 224°
2026-05-06 20:29 -31.39077 21.72826 34121 ft 411 kts 224°
2026-05-06 20:30 -31.45043 21.65587 34126 ft 411 kts 224°
2026-05-06 20:31 -31.48984 21.60802 34127 ft 411 kts 224°
2026-05-06 20:31 -31.52957 21.55953 34125 ft 411 kts 224°
2026-05-06 20:32 -31.56926 21.51109 34124 ft 411 kts 224°
2026-05-06 20:32 -31.60897 21.46260 34124 ft 412 kts 224°
2026-05-06 20:33 -31.64865 21.41409 34123 ft 412 kts 224°
2026-05-06 20:33 -31.68817 21.36570 34126 ft 412 kts 224°
2026-05-06 20:34 -31.72792 21.31692 34126 ft 413 kts 224°
2026-05-06 20:34 -31.76763 21.26823 34126 ft 413 kts 224°
2026-05-06 20:35 -31.80741 21.21931 34128 ft 414 kts 224°
2026-05-06 20:35 -31.84724 21.17023 34132 ft 415 kts 224°
2026-05-06 20:36 -31.88723 21.12103 34134 ft 416 kts 224°
2026-05-06 20:36 -31.92044 21.08006 34134 ft 417 kts 224°
2026-05-06 20:37 -31.96723 21.02211 34134 ft 418 kts 224°
2026-05-06 20:37 -32.00061 20.98077 34133 ft 419 kts 224°
2026-05-06 20:38 -32.04089 20.93089 34132 ft 420 kts 223°
2026-05-06 20:38 -32.08133 20.88078 34123 ft 422 kts 223°
2026-05-06 20:39 -32.12187 20.83042 34121 ft 424 kts 223°
2026-05-06 20:39 -32.16234 20.78009 34122 ft 426 kts 223°
2026-05-06 20:40 -32.20313 20.72927 34123 ft 427 kts 223°
2026-05-06 20:40 -32.24405 20.67819 34126 ft 428 kts 223°
2026-05-06 20:41 -32.28509 20.62689 34130 ft 429 kts 223°
2026-05-06 20:41 -32.32613 20.57556 34132 ft 430 kts 223°
2026-05-06 20:42 -32.36704 20.52437 34136 ft 431 kts 223°
2026-05-06 20:42 -32.40823 20.47268 34142 ft 432 kts 223°
2026-05-06 20:43 -32.44939 20.42084 34144 ft 432 kts 223°
2026-05-06 20:43 -32.49062 20.36891 34145 ft 432 kts 223°
2026-05-06 20:44 -32.53194 20.31692 34146 ft 433 kts 223°
2026-05-06 20:44 -32.57324 20.26489 34152 ft 433 kts 223°
2026-05-06 20:45 -32.61419 20.21310 34155 ft 433 kts 223°
2026-05-06 20:45 -32.65550 20.16068 34157 ft 433 kts 223°
2026-05-06 20:46 -32.69681 20.10830 34157 ft 434 kts 223°
2026-05-06 20:46 -32.73790 20.05632 34158 ft 434 kts 223°
2026-05-06 20:46 -32.75846 20.03028 33872 ft 431 kts 223°
2026-05-06 20:47 -32.77895 20.00422 33612 ft 432 kts 223°
2026-05-06 20:47 -32.79959 19.97797 33362 ft 434 kts 223°
2026-05-06 20:47 -32.82028 19.95164 33111 ft 438 kts 224°
2026-05-06 20:47 -32.84114 19.92506 32809 ft 438 kts 224°
2026-05-06 20:48 -32.86196 19.89850 32058 ft 440 kts 224°
2026-05-06 20:48 -32.88253 19.87224 31392 ft 439 kts 225°
2026-05-06 20:48 -32.90324 19.84573 30844 ft 435 kts 225°
2026-05-06 20:48 -32.92379 19.81938 30312 ft 430 kts 225°
2026-05-06 20:49 -32.94418 19.79325 29767 ft 426 kts 225°
2026-05-06 20:49 -32.96402 19.76786 29237 ft 422 kts 225°
2026-05-06 20:49 -32.98386 19.74244 28716 ft 417 kts 225°
2026-05-06 20:49 -33.00352 19.71721 28191 ft 413 kts 225°
2026-05-06 20:50 -33.02295 19.69220 27676 ft 409 kts 226°
2026-05-06 20:50 -33.04217 19.66747 27165 ft 405 kts 226°
2026-05-06 20:50 -33.06129 19.64288 26659 ft 401 kts 226°
2026-05-06 20:50 -33.08015 19.61866 26180 ft 396 kts 226°
2026-05-06 20:51 -33.09880 19.59468 25679 ft 392 kts 226°
2026-05-06 20:51 -33.11727 19.57088 25115 ft 390 kts 226°
2026-05-06 20:51 -33.13583 19.54697 24393 ft 393 kts 226°
2026-05-06 20:51 -33.15434 19.52311 23853 ft 390 kts 226°
2026-05-06 20:52 -33.17271 19.49941 23327 ft 387 kts 225°
2026-05-06 20:52 -33.19069 19.47620 22825 ft 383 kts 225°
2026-05-06 20:52 -33.20873 19.45291 22328 ft 380 kts 225°
2026-05-06 20:52 -33.22662 19.42982 21836 ft 377 kts 225°
2026-05-06 20:53 -33.24408 19.40650 21357 ft 376 kts 229°
2026-05-06 20:53 -33.26015 19.38202 20906 ft 373 kts 230°
2026-05-06 20:53 -33.27577 19.35744 20426 ft 370 kts 230°
2026-05-06 20:53 -33.29109 19.33285 19943 ft 367 kts 230°
2026-05-06 20:54 -33.30628 19.30831 19427 ft 365 kts 230°
2026-05-06 20:54 -33.32140 19.28389 18660 ft 369 kts 230°
2026-05-06 20:54 -33.33669 19.25932 18054 ft 368 kts 230°
2026-05-06 20:54 -33.35200 19.23479 17490 ft 366 kts 229°
2026-05-06 20:55 -33.36716 19.21055 16953 ft 362 kts 229°
2026-05-06 20:55 -33.38219 19.18653 16387 ft 359 kts 229°
2026-05-06 20:55 -33.39693 19.16300 15808 ft 356 kts 229°
2026-05-06 20:55 -33.41175 19.13929 15235 ft 353 kts 230°
2026-05-06 20:56 -33.42643 19.11576 14651 ft 351 kts 229°
2026-05-06 20:56 -33.44098 19.09243 14069 ft 347 kts 229°
2026-05-06 20:56 -33.45541 19.06934 13475 ft 345 kts 229°
2026-05-06 20:56 -33.46973 19.04640 12885 ft 342 kts 229°
2026-05-06 20:57 -33.48395 19.02360 12302 ft 340 kts 229°
2026-05-06 20:57 -33.49809 19.00097 11718 ft 337 kts 229°
2026-05-06 20:57 -33.51207 18.97857 11157 ft 335 kts 229°
2026-05-06 20:57 -33.52581 18.95653 10569 ft 333 kts 229°
2026-05-06 20:58 -33.53945 18.93454 10336 ft 322 kts 230°
2026-05-06 20:58 -33.55258 18.91333 10035 ft 314 kts 229°
2026-05-06 20:58 -33.56557 18.89240 9603 ft 311 kts 229°
2026-05-06 20:58 -33.57849 18.87161 9235 ft 308 kts 229°
2026-05-06 20:59 -33.59141 18.85085 9173 ft 312 kts 229°
2026-05-06 20:59 -33.60443 18.82989 9181 ft 314 kts 230°
2026-05-06 20:59 -33.61739 18.80894 8943 ft 311 kts 230°
2026-05-06 20:59 -33.63009 18.78839 8518 ft 309 kts 230°
2026-05-06 21:00 -33.64287 18.76771 8069 ft 308 kts 230°
2026-05-06 21:00 -33.65562 18.74710 7623 ft 306 kts 230°
2026-05-06 21:00 -33.66833 18.72658 7184 ft 305 kts 230°
2026-05-06 21:00 -33.68092 18.70618 6733 ft 303 kts 230°
2026-05-06 21:01 -33.69341 18.68592 6308 ft 302 kts 230°
2026-05-06 21:01 -33.70593 18.66573 5882 ft 300 kts 230°
2026-05-06 21:01 -33.71830 18.64587 5472 ft 290 kts 230°
2026-05-06 21:01 -33.73013 18.62687 5070 ft 276 kts 230°
2026-05-06 21:02 -33.74126 18.60910 4675 ft 265 kts 230°
2026-05-06 21:02 -33.75219 18.59179 4270 ft 255 kts 230°
2026-05-06 21:02 -33.76488 18.57787 3877 ft 242 kts 208°
2026-05-06 21:02 -33.77956 18.56873 3471 ft 233 kts 204°
2026-05-06 21:03 -33.79402 18.56060 3093 ft 227 kts 203°
2026-05-06 21:03 -33.80869 18.55523 3002 ft 213 kts 183°
2026-05-06 21:03 -33.82281 18.55668 2991 ft 197 kts 165°
2026-05-06 21:03 -33.83572 18.56077 2814 ft 188 kts 165°
2026-05-06 21:04 -33.84827 18.56475 2554 ft 185 kts 164°
2026-05-06 21:04 -33.86050 18.56862 2311 ft 177 kts 164°
2026-05-06 21:04 -33.87205 18.57226 2058 ft 167 kts 164°
2026-05-06 21:04 -33.88296 18.57571 1827 ft 157 kts 164°
2026-05-06 21:05 -33.89278 18.57882 1630 ft 141 kts 164°
2026-05-06 21:05 -33.90205 18.58172 1409 ft 135 kts 164°
2026-05-06 21:05 -33.91108 18.58448 1222 ft 133 kts 164°
2026-05-06 21:05 -33.92002 18.58734 1014 ft 132 kts 163°
2026-05-06 21:06 -33.92888 18.59023 832 ft 132 kts 164°
2026-05-06 21:06 -33.93778 18.59305 666 ft 132 kts 164°
2026-05-06 21:06 -33.94674 18.59583 489 ft 133 kts 164°
2026-05-06 21:06 -33.95563 18.59874 305 ft 132 kts 164°
2026-05-06 21:07 -33.96441 18.60149 159 ft 125 kts 165°
2026-05-06 21:07 -33.97121 18.60367 155 ft 76 kts 165°
2026-05-06 21:07 -33.97497 18.60486 152 ft 45 kts 164°
2026-05-06 21:07 -33.97734 18.60563 154 ft 21 kts 165°
2026-05-06 21:08 -33.97792 18.60504 154 ft 11 kts 283°
2026-05-06 21:08 -33.97765 18.60404 154 ft 14 kts 288°
2026-05-06 21:08 -33.97743 18.60318 154 ft 8 kts 283°
2026-05-06 21:08 -33.97728 18.60243 154 ft 11 kts 283°
2026-05-06 21:09 -33.97679 18.60172 154 ft 13 kts 336°
2026-05-06 21:09 -33.97586 18.60133 154 ft 13 kts 339°
2026-05-06 21:09 -33.97502 18.60092 154 ft 14 kts 338°
2026-05-06 21:09 -33.97404 18.60052 154 ft 15 kts 343°
2026-05-06 21:10 -33.97299 18.60016 154 ft 17 kts 345°
2026-05-06 21:10 -33.97187 18.59983 154 ft 14 kts 347°
2026-05-06 21:10 -33.97099 18.59959 154 ft 14 kts 347°
2026-05-06 21:10 -33.97035 18.59944 154 ft 5 kts 348°
2026-05-06 21:11 -33.97019 18.59933 154 ft 1 kts 314°
2026-05-06 21:11 -33.97019 18.59922 154 ft 2 kts 264°
2026-05-06 21:11 -33.97023 18.59908 154 ft 3 kts 256°
2026-05-06 21:11 -33.97028 18.59884 154 ft 3 kts 254°
2026-05-06 21:12 -33.97033 18.59861 154 ft 3 kts 255°
2026-05-06 21:12 -33.97036 18.59849 154 ft 0 kts 255°
2026-05-06 21:12 -33.97036 18.59848 154 ft 0 kts 255°